GW5521 Weather Reports


time (UTC)temp
C
wind
direction
speed
KPH
gust
KPH
rain 1hr
cm
rain 24hr
cm
rain mn
cm
humidity
%
barometer
mb
20260505153313 7 289 0.0 3.2 0.00 0.00 0.00 96 1017.0
20260505153023 6 289 0.0 3.2 0.00 0.00 0.00 97 1014.7
20260505151820 6 187 1.6 3.2 0.00 0.00 0.00 96 1016.9
20260505151541 6 229 0.0 3.2 0.00 0.00 0.00 96 1014.7
20260505150327 6 318 1.6 3.2 0.00 0.00 0.00 96 1016.9
20260505140425 6 306 0.0 3.2 0.00 0.00 0.00 95 1016.2
20260505130111 5 306 0.0 1.6 0.00 0.00 0.00 92 1013.2
20260505124823 6 306 0.0 3.2 0.00 0.00 0.00 92 1015.8
20260505124520 5 306 1.6 3.2 0.00 0.00 0.00 92 1013.0
20260505123312 6 306 3.2 3.2 0.00 0.00 0.00 92 1015.8
20260505123052 5 306 0.0 3.2 0.00 0.00 0.00 93 1013.0
20260505121857 6 306 3.2 4.8 0.00 0.00 0.00 92 1015.8
20260505121521 5 306 1.6 4.8 0.00 0.00 0.00 92 1013.0
20260505120323 6 306 3.2 3.2 0.00 0.00 0.00 91 1015.6
20260505120053 6 306 1.6 3.2 0.00 0.00 0.00 91 1012.9
20260505114828 6 306 3.2 3.2 0.00 0.00 0.00 91 1015.6
20260505114503 6 306 1.6 3.2 0.00 0.00 0.00 91 1012.8
20260505113331 6 306 1.6 1.6 0.00 0.00 0.00 93 1015.6
20260505113006 6 306 0.0 0.0 0.00 0.00 0.00 94 1012.8
20260505111903 6 306 0.0 1.6 0.00 0.00 0.00 94 1015.6
20260505111547 6 306 0.0 3.2 0.00 0.00 0.00 93 1012.8
20260505110350 7 306 0.0 3.2 0.00 0.00 0.00 93 1015.6
20260505101820 7 306 4.8 4.8 0.00 0.00 0.00 91 1015.4
20260505101534 7 306 3.2 4.8 0.00 0.00 0.00 91 1012.3
20260505100308 7 306 3.2 4.8 0.00 0.00 0.00 90 1015.2
20260505100056 7 306 3.2 4.8 0.00 0.00 0.00 90 1012.2
20260505094834 7 308 3.2 3.2 0.00 0.00 0.00 91 1015.3
20260505094554 7 308 1.6 4.8 0.00 0.00 0.00 90 1012.2
20260505093314 7 308 3.2 3.2 0.00 0.00 0.00 91 1015.2
20260505093012 7 308 1.6 3.2 0.00 0.00 0.00 90 1012.1
20260505091820 7 308 3.2 4.8 0.00 0.00 0.00 90 1015.1
20260505091537 7 308 3.2 4.8 0.00 0.00 0.00 90 1011.9
20260505090328 7 308 4.8 4.8 0.00 0.00 0.00 90 1015.1
20260505090120 7 308 3.2 4.8 0.00 0.00 0.00 90 1012.0
20260505084835 7 305 4.8 4.8 0.00 0.00 0.00 90 1015.1
20260505084614 7 305 3.2 4.8 0.00 0.00 0.00 90 1011.9
20260505083340 8 311 1.6 3.2 0.00 0.00 0.00 89 1015.0
20260505083108 7 311 1.6 3.2 0.00 0.00 0.00 89 1011.8
20260505081813 8 311 3.2 3.2 0.00 0.00 0.00 89 1014.9
20260505081508 7 311 1.6 3.2 0.00 0.00 0.00 89 1011.7
20260505080349 8 284 3.2 4.8 0.00 0.00 0.00 88 1014.9
20260505080016 8 284 1.6 3.2 0.00 0.00 0.00 88 1011.6
20260505074910 8 284 1.6 3.2 0.00 0.00 0.00 89 1015.0
20260505074530 8 284 0.0 3.2 0.00 0.00 0.00 88 1011.7
20260505073319 8 284 1.6 4.8 0.00 0.00 0.00 89 1014.9
20260505073058 8 284 3.2 4.8 0.00 0.00 0.00 87 1011.8
20260505071818 9 272 1.6 3.2 0.00 0.00 0.00 85 1015.0
20260505071513 8 272 1.6 3.2 0.00 0.00 0.00 85 1011.6
20260505070327 10 210 0.0 3.2 0.00 0.00 0.00 86 1014.9
20260505070013 9 210 0.0 3.2 0.00 0.00 0.00 85 1011.4
20260505064811 10 210 0.0 1.6 0.00 0.00 0.00 84 1014.8
20260505064537 10 210 0.0 3.2 0.00 0.00 0.00 84 1011.4
20260505063319 10 210 1.6 3.2 0.00 0.00 0.00 82 1014.8
20260505063100 10 210 0.0 3.2 0.00 0.00 0.00 82 1011.4
20260505061905 10 139 1.6 3.2 0.00 0.00 0.00 81 1014.8
20260505061536 10 139 0.0 3.2 0.00 0.00 0.00 81 1011.3
20260505060332 11 139 0.0 3.2 0.00 0.00 0.00 80 1014.9
20260505060054 11 139 0.0 3.2 0.00 0.00 0.00 79 1011.4
20260505054857 11 233 0.0 3.2 0.00 0.00 0.00 78 1014.9
20260505054519 11 233 0.0 3.2 0.00 0.00 0.00 78 1011.3
20260505053343 11 233 0.0 3.2 0.00 0.00 0.00 77 1014.8
20260505053020 11 233 0.0 3.2 0.00 0.00 0.00 77 1011.3
20260505051808 12 233 1.6 3.2 0.00 0.00 0.00 75 1014.7
20260505051541 12 233 1.6 3.2 0.00 0.00 0.00 75 1011.2
20260505050337 12 233 1.6 3.2 0.00 0.00 0.00 74 1014.9
20260505041554 13 260 3.2 4.8 0.00 0.00 0.00 71 1011.1
20260505040340 13 235 1.6 3.2 0.00 0.00 0.00 69 1014.8
20260505040047 13 235 0.0 4.8 0.00 0.00 0.00 69 1010.9
20260505034845 14 245 0.0 4.8 0.00 0.00 0.00 68 1014.6
20260505034544 14 245 1.6 4.8 0.00 0.00 0.00 68 1010.8
20260505033329 15 256 1.6 6.4 0.00 0.00 0.00 67 1014.5
20260505033103 15 256 1.6 6.4 0.00 0.00 0.00 66 1010.7
20260505031808 15 238 4.8 8.0 0.00 0.00 0.00 64 1014.5
20260505031523 15 253 1.6 4.8 0.00 0.00 0.00 64 1010.6
20260505030317 16 222 4.8 8.0 0.00 0.00 0.00 62 1014.2
20260505030104 16 236 3.2 8.0 0.00 0.00 0.00 62 1010.4
20260505024839 17 217 3.2 6.4 0.00 0.00 0.00 59 1014.1
20260505024548 17 242 1.6 6.4 0.00 0.00 0.00 59 1010.2
20260505023328 17 264 3.2 11.3 0.00 0.00 0.00 57 1014.0
20260505023044 17 249 3.2 14.5 0.00 0.00 0.00 56 1010.0
20260505021805 18 216 8.0 19.3 0.00 0.00 0.00 55 1014.0
20260505021557 18 232 4.8 19.3 0.00 0.00 0.00 55 1010.1
20260505020309 18 242 8.0 17.7 0.00 0.00 0.00 53 1014.0
20260505020016 18 278 8.0 17.7 0.00 0.00 0.00 53 1010.0
20260505014834 19 254 8.0 19.3 0.00 0.00 0.00 51 1014.0
20260505014531 19 227 9.7 19.3 0.00 0.00 0.00 50 1009.9
20260505013322 20 198 6.4 14.5 0.00 0.00 0.00 53 1014.0
20260505013048 20 245 4.8 14.5 0.00 0.00 0.00 54 1010.1
20260505011827 19 177 11.3 17.7 0.00 0.00 0.00 55 1014.0
20260505011602 19 245 9.7 20.9 0.00 0.00 0.00 56 1010.0
20260505010329 20 221 12.9 20.9 0.00 0.00 0.00 53 1014.1
20260505010002 20 207 12.9 19.3 0.00 0.00 0.00 51 1010.1
20260505004814 20 190 4.8 17.7 0.00 0.00 0.00 46 1014.3
20260505004536 20 346 6.4 17.7 0.00 0.00 0.00 46 1010.1
20260505003343 20 254 6.4 17.7 0.00 0.00 0.00 51 1014.3
20260505003047 20 189 6.4 17.7 0.00 0.00 0.00 51 1010.1
20260505001827 20 284 11.3 19.3 0.00 0.00 0.00 49 1014.1
20260505001526 20 217 11.3 19.3 0.00 0.00 0.00 46 1010.0
20260505000314 21 256 8.0 12.9 0.00 0.00 0.00 44 1014.2
20260505000051 21 238 6.4 14.5 0.00 0.00 0.00 46 1010.1
20260504234813 21 248 4.8 19.3 0.00 0.00 0.00 44 1014.1
20260504234507 20 239 9.7 19.3 0.00 0.00 0.00 45 1009.9
20260504233350 21 236 6.4 22.5 0.00 0.00 0.00 44 1014.1
20260504233049 20 254 4.8 22.5 0.00 0.00 0.00 45 1010.1
20260504231834 21 203 9.7 19.3 0.00 0.00 0.00 44 1014.2
20260504231549 20 227 8.0 19.3 0.00 0.00 0.00 44 1010.0
20260504230314 21 188 11.3 20.9 0.00 0.00 0.00 42 1014.3
20260504230009 21 209 12.9 22.5 0.00 0.00 0.00 42 1010.2
20260504224847 21 204 11.3 24.1 0.00 0.00 0.00 42 1014.4
20260504224516 20 208 11.3 24.1 0.00 0.00 0.00 42 1010.2
20260504223355 21 198 12.9 19.3 0.00 0.00 0.00 45 1014.4
20260504223107 21 196 9.7 20.9 0.00 0.00 0.00 44 1010.1
20260504221813 21 191 11.3 22.5 0.00 0.00 0.00 40 1014.4
20260504221514 20 227 12.9 22.5 0.00 0.00 0.00 42 1010.3
20260504220320 21 242 9.7 19.3 0.00 0.00 0.00 42 1014.8
20260504220034 21 221 9.7 17.7 0.00 0.00 0.00 43 1010.5
20260504214826 21 229 6.4 19.3 0.00 0.00 0.00 41 1014.7
20260504214557 21 212 6.4 19.3 0.00 0.00 0.00 43 1010.5
20260504213335 21 197 8.0 20.9 0.00 0.00 0.00 47 1014.5
20260504213106 21 187 9.7 20.9 0.00 0.00 0.00 46 1010.3
20260504211832 21 195 11.3 24.1 0.00 0.00 0.00 42 1014.7
20260504211633 21 224 8.0 24.1 0.00 0.00 0.00 46 1010.3
20260504210314 20 201 12.9 19.3 0.00 0.00 0.00 47 1014.8
20260504210007 20 211 11.3 19.3 0.00 0.00 0.00 49 1010.2
20260504204847 20 202 12.9 25.7 0.00 0.00 0.00 50 1014.7
20260504204508 20 206 14.5 25.7 0.00 0.00 0.00 49 1010.4
20260504203307 20 237 14.5 19.3 0.00 0.00 0.00 51 1014.7
20260504203030 20 177 12.9 17.7 0.00 0.00 0.00 48 1010.3
20260504201813 20 179 11.3 17.7 0.00 0.00 0.00 49 1014.9
20260504201559 20 190 9.7 16.1 0.00 0.00 0.00 50 1010.5
20260504200342 20 197 12.9 20.9 0.00 0.00 0.00 49 1014.9
20260504200055 20 209 11.3 20.9 0.00 0.00 0.00 50 1010.6
20260504194828 20 202 11.3 17.7 0.00 0.00 0.00 52 1014.8
20260504194513 19 192 8.0 20.9 0.00 0.00 0.00 53 1010.4
20260504193325 20 179 12.9 17.7 0.00 0.00 0.00 54 1014.9
20260504193031 19 206 8.0 14.5 0.00 0.00 0.00 55 1010.4
20260504191811 20 184 9.7 17.7 0.00 0.00 0.00 56 1014.9
20260504191608 19 221 8.0 17.7 0.00 0.00 0.00 55 1010.5
20260504190341 19 239 11.3 19.3 0.00 0.00 0.00 55 1015.1
20260504190107 19 173 9.7 19.3 0.00 0.00 0.00 56 1010.6
20260504184845 18 192 9.7 19.3 0.00 0.00 0.00 56 1014.9
20260504184556 18 183 11.3 19.3 0.00 0.00 0.00 55 1010.5
20260504183334 18 224 12.9 17.7 0.00 0.00 0.00 56 1015.1
20260504183057 18 213 9.7 17.7 0.00 0.00 0.00 59 1010.6
20260504181920 17 213 14.5 17.7 0.00 0.00 0.00 59 1014.9
20260504181516 17 211 11.3 19.3 0.00 0.00 0.00 58 1010.5
20260504180344 17 200 14.5 19.3 0.00 0.00 0.00 58 1014.9
20260504180016 17 197 9.7 17.7 0.00 0.00 0.00 58 1010.4
20260504174808 17 191 11.3 19.3 0.00 0.00 0.00 58 1014.7
20260504174544 17 225 11.3 16.1 0.00 0.00 0.00 57 1010.3
20260504173338 17 194 11.3 16.1 0.00 0.00 0.00 55 1014.5
20260504173044 17 228 9.7 14.5 0.00 0.00 0.00 56 1010.2
20260504171843 17 200 9.7 16.1 0.00 0.00 0.00 56 1014.7
20260504171542 16 217 9.7 16.1 0.00 0.00 0.00 56 1010.1
20260504170330 17 201 8.0 12.9 0.00 0.00 0.00 53 1014.4
20260504160307 16 186 3.2 6.4 0.00 0.00 0.00 45 1014.1